| time (UTC) | temp C | wind direction | speed KPH | gust KPH | rain 1hr cm | rain 24hr cm | rain mn cm | humidity % | barometer mb |
| 20260510020515 | 13 | 109 | 0.0 | 0.0 | 0.00 | 0.00 | 0.00 | 75 | 1009.0 |
| 20260510020050 | 13 | 109 | 0.0 | 0.0 | 0.00 | 0.00 | 0.00 | 75 | 1009.0 |
| 20260510015531 | 13 | 109 | 0.0 | 0.0 | 0.00 | 0.00 | 0.00 | 74 | 1008.9 |
| 20260510015013 | 13 | 109 | 0.0 | 0.0 | 0.00 | 0.00 | 0.00 | 74 | 1008.8 |
| 20260510014549 | 13 | 109 | 0.0 | 0.0 | 0.00 | 0.00 | 0.00 | 74 | 1008.7 |
| 20260510014035 | 13 | 110 | 0.0 | 0.0 | 0.00 | 0.00 | 0.00 | 73 | 1008.6 |
| 20260510013510 | 14 | 110 | 0.0 | 0.0 | 0.00 | 0.00 | 0.00 | 72 | 1008.5 |
| 20260510013046 | 14 | 108 | 0.0 | 3.2 | 0.00 | 0.00 | 0.00 | 71 | 1008.5 |
| 20260510012531 | 14 | 112 | 0.0 | 3.2 | 0.00 | 0.00 | 0.00 | 70 | 1008.3 |
| 20260510012011 | 14 | 89 | 0.0 | 3.2 | 0.00 | 0.00 | 0.00 | 70 | 1008.2 |
| 20260510011603 | 15 | 337 | 0.0 | 3.2 | 0.00 | 0.00 | 0.00 | 68 | 1008.2 |
| 20260510011030 | 15 | 80 | 0.0 | 3.2 | 0.00 | 0.00 | 0.00 | 68 | 1008.2 |
| 20260510010505 | 16 | 148 | 0.0 | 1.6 | 0.00 | 0.00 | 0.00 | 62 | 1008.1 |
| 20260510010055 | 16 | 121 | 0.0 | 1.6 | 0.00 | 0.00 | 0.00 | 61 | 1007.9 |
| 20260510005521 | 16 | 142 | 0.0 | 0.0 | 0.00 | 0.00 | 0.00 | 61 | 1007.8 |
| 20260510005057 | 17 | 142 | 0.0 | 0.0 | 0.00 | 0.00 | 0.00 | 58 | 1007.7 |
| 20260510004517 | 17 | 142 | 0.0 | 0.0 | 0.00 | 0.00 | 0.00 | 57 | 1007.6 |
| 20260510004043 | 17 | 142 | 0.0 | 0.0 | 0.00 | 0.00 | 0.00 | 58 | 1007.5 |
| 20260510003559 | 17 | 142 | 0.0 | 0.0 | 0.00 | 0.00 | 0.00 | 57 | 1007.4 |
| 20260510003504 | 17 | 142 | 0.0 | 0.0 | 0.00 | 0.00 | 0.00 | 57 | 1007.4 |
| 20260510003037 | 17 | 142 | 0.0 | 0.0 | 0.00 | 0.00 | 0.00 | 56 | 1007.3 |
| 20260510002553 | 18 | 142 | 0.0 | 1.6 | 0.00 | 0.00 | 0.00 | 55 | 1007.2 |
| 20260510002035 | 18 | 140 | 0.0 | 1.6 | 0.00 | 0.00 | 0.00 | 55 | 1007.1 |
| 20260510001506 | 19 | 137 | 0.0 | 1.6 | 0.00 | 0.00 | 0.00 | 54 | 1007.0 |
| 20260510001037 | 19 | 145 | 0.0 | 1.6 | 0.00 | 0.00 | 0.00 | 52 | 1006.9 |
| 20260510000513 | 20 | 132 | 0.0 | 1.6 | 0.00 | 0.00 | 0.00 | 51 | 1006.9 |
| 20260510000048 | 20 | 127 | 0.0 | 1.6 | 0.00 | 0.00 | 0.00 | 51 | 1006.9 |
| 20260509235525 | 20 | 127 | 0.0 | 1.6 | 0.00 | 0.00 | 0.00 | 53 | 1006.9 |
| 20260509235059 | 21 | 127 | 0.0 | 1.6 | 0.00 | 0.00 | 0.00 | 55 | 1006.8 |
| 20260509235001 | 21 | 127 | 0.0 | 1.6 | 0.00 | 0.00 | 0.00 | 55 | 1006.8 |
| 20260509234520 | 21 | 126 | 0.0 | 1.6 | 0.00 | 0.00 | 0.00 | 54 | 1006.9 |
| 20260509234044 | 21 | 79 | 0.0 | 3.2 | 0.00 | 0.00 | 0.00 | 53 | 1006.9 |
| 20260509233507 | 21 | 79 | 0.0 | 3.2 | 0.00 | 0.00 | 0.00 | 50 | 1006.8 |
| 20260509233039 | 21 | 175 | 1.6 | 3.2 | 0.00 | 0.00 | 0.00 | 50 | 1006.9 |
| 20260509232555 | 21 | 109 | 1.6 | 3.2 | 0.00 | 0.00 | 0.00 | 50 | 1006.9 |
| 20260509232015 | 21 | 229 | 0.0 | 4.8 | 0.00 | 0.00 | 0.00 | 53 | 1006.8 |
| 20260509231539 | 21 | 250 | 0.0 | 4.8 | 0.00 | 0.00 | 0.00 | 52 | 1006.8 |
| 20260509231017 | 21 | 49 | 0.0 | 4.8 | 0.00 | 0.00 | 0.00 | 49 | 1006.7 |
| 20260509230553 | 21 | 5 | 0.0 | 6.4 | 0.00 | 0.00 | 0.00 | 49 | 1006.6 |
| 20260509230035 | 21 | 93 | 1.6 | 6.4 | 0.00 | 0.00 | 0.00 | 49 | 1006.5 |
| 20260509225523 | 21 | 331 | 0.0 | 4.8 | 0.00 | 0.00 | 0.00 | 51 | 1006.5 |
| 20260509225059 | 21 | 55 | 1.6 | 4.8 | 0.00 | 0.00 | 0.00 | 48 | 1006.6 |
| 20260509224544 | 21 | 15 | 0.0 | 3.2 | 0.00 | 0.00 | 0.00 | 51 | 1006.6 |
| 20260509224030 | 21 | 50 | 0.0 | 3.2 | 0.00 | 0.00 | 0.00 | 49 | 1006.7 |
| 20260509223519 | 22 | 74 | 0.0 | 6.4 | 0.00 | 0.00 | 0.00 | 48 | 1006.7 |
| 20260509223057 | 22 | 73 | 1.6 | 6.4 | 0.00 | 0.00 | 0.00 | 47 | 1006.7 |
| 20260509223006 | 22 | 80 | 1.6 | 6.4 | 0.00 | 0.00 | 0.00 | 47 | 1006.7 |
| 20260509222542 | 22 | 317 | 1.6 | 4.8 | 0.00 | 0.00 | 0.00 | 50 | 1006.7 |
| 20260509222011 | 22 | 313 | 0.0 | 4.8 | 0.00 | 0.00 | 0.00 | 46 | 1006.6 |
| 20260509221538 | 21 | 333 | 1.6 | 4.8 | 0.00 | 0.00 | 0.00 | 47 | 1006.7 |
| 20260509221019 | 21 | 36 | 1.6 | 4.8 | 0.00 | 0.00 | 0.00 | 45 | 1006.7 |
| 20260509220600 | 21 | 52 | 0.0 | 4.8 | 0.00 | 0.00 | 0.00 | 46 | 1006.6 |
| 20260509220505 | 21 | 126 | 0.0 | 3.2 | 0.00 | 0.00 | 0.00 | 45 | 1006.6 |
| 20260509220036 | 21 | 231 | 0.0 | 3.2 | 0.00 | 0.00 | 0.00 | 49 | 1006.6 |
| 20260509215558 | 21 | 302 | 1.6 | 4.8 | 0.00 | 0.00 | 0.00 | 43 | 1006.5 |
| 20260509215043 | 22 | 334 | 0.0 | 3.2 | 0.00 | 0.00 | 0.00 | 45 | 1006.6 |
| 20260509214557 | 22 | 360 | 0.0 | 1.6 | 0.00 | 0.00 | 0.00 | 46 | 1006.6 |
| 20260509214020 | 22 | 5 | 0.0 | 3.2 | 0.00 | 0.00 | 0.00 | 45 | 1006.5 |
| 20260509213558 | 22 | 300 | 0.0 | 4.8 | 0.00 | 0.00 | 0.00 | 45 | 1006.4 |
| 20260509213025 | 22 | 77 | 0.0 | 4.8 | 0.00 | 0.00 | 0.00 | 44 | 1006.4 |
| 20260509212504 | 21 | 13 | 0.0 | 3.2 | 0.00 | 0.00 | 0.00 | 46 | 1006.3 |
| 20260509212028 | 21 | 34 | 0.0 | 3.2 | 0.00 | 0.00 | 0.00 | 43 | 1006.2 |
| 20260509211611 | 21 | 345 | 0.0 | 4.8 | 0.00 | 0.00 | 0.00 | 45 | 1006.2 |
| 20260509211032 | 21 | 286 | 0.0 | 4.8 | 0.00 | 0.00 | 0.00 | 45 | 1006.2 |
| 20260509210549 | 21 | 49 | 0.0 | 6.4 | 0.00 | 0.00 | 0.00 | 47 | 1006.2 |
| 20260509210015 | 21 | 76 | 0.0 | 6.4 | 0.00 | 0.00 | 0.00 | 47 | 1006.1 |
| 20260509205551 | 21 | 346 | 0.0 | 3.2 | 0.00 | 0.00 | 0.00 | 47 | 1006.1 |
| 20260509205016 | 21 | 44 | 0.0 | 3.2 | 0.00 | 0.00 | 0.00 | 48 | 1006.1 |
| 20260509204600 | 22 | 5 | 0.0 | 4.8 | 0.00 | 0.00 | 0.00 | 48 | 1006.1 |
| 20260509204011 | 22 | 55 | 0.0 | 4.8 | 0.00 | 0.00 | 0.00 | 45 | 1006.1 |
| 20260509203532 | 22 | 78 | 0.0 | 4.8 | 0.00 | 0.00 | 0.00 | 45 | 1006.1 |
| 20260509203024 | 22 | 329 | 0.0 | 4.8 | 0.00 | 0.00 | 0.00 | 45 | 1006.1 |
| 20260509202535 | 23 | 64 | 0.0 | 4.8 | 0.00 | 0.00 | 0.00 | 45 | 1006.0 |
| 20260509202051 | 23 | 72 | 1.6 | 9.7 | 0.00 | 0.00 | 0.00 | 43 | 1006.0 |
| 20260509201533 | 23 | 91 | 1.6 | 9.7 | 0.00 | 0.00 | 0.00 | 41 | 1006.0 |
| 20260509201048 | 23 | 324 | 1.6 | 12.9 | 0.00 | 0.00 | 0.00 | 42 | 1005.9 |
| 20260509200530 | 23 | 157 | 0.0 | 12.9 | 0.00 | 0.00 | 0.00 | 44 | 1006.0 |
| 20260509200049 | 23 | 51 | 3.2 | 11.3 | 0.00 | 0.00 | 0.00 | 41 | 1006.0 |
| 20260509195530 | 23 | 283 | 3.2 | 11.3 | 0.00 | 0.00 | 0.00 | 41 | 1006.1 |
| 20260509195046 | 23 | 65 | 1.6 | 6.4 | 0.00 | 0.00 | 0.00 | 45 | 1006.1 |
| 20260509194505 | 22 | 295 | 1.6 | 6.4 | 0.00 | 0.00 | 0.00 | 42 | 1006.2 |
| 20260509194039 | 22 | 53 | 1.6 | 6.4 | 0.00 | 0.00 | 0.00 | 42 | 1006.2 |
| 20260509193510 | 22 | 344 | 1.6 | 6.4 | 0.00 | 0.00 | 0.00 | 41 | 1006.3 |
| 20260509193048 | 22 | 312 | 3.2 | 6.4 | 0.00 | 0.00 | 0.00 | 43 | 1006.4 |
| 20260509192532 | 22 | 62 | 0.0 | 8.0 | 0.00 | 0.00 | 0.00 | 46 | 1006.5 |
| 20260509192008 | 22 | 83 | 0.0 | 8.0 | 0.00 | 0.00 | 0.00 | 43 | 1006.6 |
| 20260509191548 | 22 | 69 | 1.6 | 6.4 | 0.00 | 0.00 | 0.00 | 43 | 1006.6 |
| 20260509191035 | 22 | 38 | 1.6 | 14.5 | 0.00 | 0.00 | 0.00 | 42 | 1006.7 |
| 20260509190600 | 22 | 82 | 1.6 | 14.5 | 0.00 | 0.00 | 0.00 | 44 | 1006.8 |
| 20260509190502 | 22 | 307 | 4.8 | 14.5 | 0.00 | 0.00 | 0.00 | 43 | 1006.8 |
| 20260509190025 | 22 | 26 | 1.6 | 11.3 | 0.00 | 0.00 | 0.00 | 47 | 1006.7 |
| 20260509185502 | 22 | 293 | 0.0 | 11.3 | 0.00 | 0.00 | 0.00 | 48 | 1006.7 |
| 20260509185024 | 22 | 63 | 1.6 | 8.0 | 0.00 | 0.00 | 0.00 | 46 | 1006.8 |
| 20260509184552 | 21 | 334 | 3.2 | 8.0 | 0.00 | 0.00 | 0.00 | 49 | 1006.8 |
| 20260509184037 | 21 | 360 | 1.6 | 8.0 | 0.00 | 0.00 | 0.00 | 45 | 1006.9 |
| 20260509183558 | 22 | 309 | 1.6 | 8.0 | 0.00 | 0.00 | 0.00 | 45 | 1006.9 |
| 20260509183022 | 21 | 302 | 1.6 | 8.0 | 0.00 | 0.00 | 0.00 | 47 | 1006.9 |
| 20260509182537 | 21 | 261 | 3.2 | 8.0 | 0.00 | 0.00 | 0.00 | 47 | 1007.0 |
| 20260509182054 | 21 | 17 | 3.2 | 9.7 | 0.00 | 0.00 | 0.00 | 48 | 1007.2 |
| 20260509181534 | 21 | 110 | 3.2 | 9.7 | 0.00 | 0.00 | 0.00 | 47 | 1007.3 |
| 20260509181052 | 21 | 5 | 3.2 | 9.7 | 0.00 | 0.00 | 0.00 | 51 | 1007.3 |
| 20260509180532 | 20 | 5 | 1.6 | 9.7 | 0.00 | 0.00 | 0.00 | 54 | 1007.5 |
| 20260509180008 | 20 | 105 | 1.6 | 6.4 | 0.00 | 0.00 | 0.00 | 51 | 1007.6 |
| 20260509175542 | 20 | 69 | 1.6 | 6.4 | 0.00 | 0.00 | 0.00 | 52 | 1007.6 |
| 20260509175022 | 20 | 58 | 1.6 | 6.4 | 0.00 | 0.00 | 0.00 | 54 | 1007.8 |
| 20260509174556 | 20 | 61 | 1.6 | 8.0 | 0.00 | 0.00 | 0.00 | 53 | 1008.0 |
| 20260509174038 | 19 | 346 | 0.0 | 8.0 | 0.00 | 0.00 | 0.00 | 54 | 1008.0 |
| 20260509173514 | 19 | 355 | 1.6 | 4.8 | 0.00 | 0.00 | 0.00 | 56 | 1007.9 |
| 20260509173052 | 19 | 343 | 0.0 | 6.4 | 0.00 | 0.00 | 0.00 | 56 | 1007.9 |
| 20260509172534 | 19 | 300 | 1.6 | 6.4 | 0.00 | 0.00 | 0.00 | 53 | 1008.0 |
| 20260509172006 | 19 | 44 | 0.0 | 3.2 | 0.00 | 0.00 | 0.00 | 54 | 1007.9 |
| 20260509171541 | 19 | 86 | 0.0 | 1.6 | 0.00 | 0.00 | 0.00 | 56 | 1008.0 |
| 20260509171020 | 19 | 16 | 0.0 | 3.2 | 0.00 | 0.00 | 0.00 | 55 | 1008.2 |
| 20260509170556 | 19 | 230 | 0.0 | 3.2 | 0.00 | 0.00 | 0.00 | 53 | 1008.3 |
| 20260509170036 | 19 | 251 | 0.0 | 3.2 | 0.00 | 0.00 | 0.00 | 55 | 1008.4 |
| 20260509165514 | 19 | 239 | 0.0 | 3.2 | 0.00 | 0.00 | 0.00 | 55 | 1008.5 |
| 20260509165048 | 19 | 300 | 0.0 | 4.8 | 0.00 | 0.00 | 0.00 | 55 | 1008.6 |
| 20260509164531 | 19 | 292 | 0.0 | 4.8 | 0.00 | 0.00 | 0.00 | 54 | 1008.6 |
| 20260509164008 | 19 | 158 | 0.0 | 6.4 | 0.00 | 0.00 | 0.00 | 52 | 1008.5 |
| 20260509163544 | 19 | 222 | 0.0 | 6.4 | 0.00 | 0.00 | 0.00 | 53 | 1008.5 |
| 20260509163024 | 19 | 360 | 0.0 | 4.8 | 0.00 | 0.00 | 0.00 | 55 | 1008.5 |
| 20260509162558 | 19 | 155 | 1.6 | 4.8 | 0.00 | 0.00 | 0.00 | 54 | 1008.3 |
| 20260509162038 | 19 | 319 | 1.6 | 4.8 | 0.00 | 0.00 | 0.00 | 54 | 1008.3 |
| 20260509161518 | 19 | 321 | 1.6 | 4.8 | 0.00 | 0.00 | 0.00 | 56 | 1008.4 |
| 20260509161053 | 19 | 323 | 1.6 | 4.8 | 0.00 | 0.00 | 0.00 | 56 | 1008.4 |
| 20260509160524 | 19 | 51 | 0.0 | 4.8 | 0.00 | 0.00 | 0.00 | 55 | 1008.3 |
| 20260509160004 | 18 | 328 | 1.6 | 4.8 | 0.00 | 0.00 | 0.00 | 55 | 1008.2 |
| 20260509155527 | 18 | 76 | 0.0 | 3.2 | 0.00 | 0.00 | 0.00 | 55 | 1008.3 |
| 20260509155009 | 18 | 76 | 0.0 | 3.2 | 0.00 | 0.00 | 0.00 | 55 | 1008.3 |
| 20260509154552 | 18 | 86 | 0.0 | 4.8 | 0.00 | 0.00 | 0.00 | 54 | 1008.4 |
| 20260509154039 | 18 | 97 | 0.0 | 4.8 | 0.00 | 0.00 | 0.00 | 52 | 1008.3 |
| 20260509153509 | 18 | 274 | 0.0 | 4.8 | 0.00 | 0.00 | 0.00 | 53 | 1008.4 |
| 20260509153051 | 18 | 127 | 0.0 | 4.8 | 0.00 | 0.00 | 0.00 | 53 | 1008.3 |
| 20260509152534 | 18 | 82 | 0.0 | 6.4 | 0.00 | 0.00 | 0.00 | 55 | 1008.3 |
| 20260509152058 | 18 | 241 | 0.0 | 4.8 | 0.00 | 0.00 | 0.00 | 53 | 1008.3 |
| 20260509152004 | 18 | 78 | 0.0 | 4.8 | 0.00 | 0.00 | 0.00 | 53 | 1008.3 |
| 20260509151538 | 18 | 124 | 0.0 | 4.8 | 0.00 | 0.00 | 0.00 | 56 | 1008.2 |
| 20260509151026 | 18 | 272 | 0.0 | 8.0 | 0.00 | 0.00 | 0.00 | 53 | 1008.2 |
| 20260509150547 | 18 | 273 | 1.6 | 8.0 | 0.00 | 0.00 | 0.00 | 54 | 1008.3 |
| 20260509150032 | 18 | 117 | 0.0 | 3.2 | 0.00 | 0.00 | 0.00 | 55 | 1008.4 |
| 20260509145550 | 18 | 319 | 0.0 | 4.8 | 0.00 | 0.00 | 0.00 | 55 | 1008.5 |
| 20260509145031 | 18 | 96 | 0.0 | 4.8 | 0.00 | 0.00 | 0.00 | 57 | 1008.4 |
| 20260509144511 | 17 | 259 | 0.0 | 4.8 | 0.00 | 0.00 | 0.00 | 60 | 1008.5 |
| 20260509144052 | 17 | 41 | 0.0 | 4.8 | 0.00 | 0.00 | 0.00 | 58 | 1008.4 |
| 20260509143527 | 17 | 173 | 1.6 | 6.4 | 0.00 | 0.00 | 0.00 | 57 | 1008.4 |
| 20260509143009 | 17 | 220 | 1.6 | 6.4 | 0.00 | 0.00 | 0.00 | 58 | 1008.3 |
| 20260509142536 | 17 | 69 | 1.6 | 6.4 | 0.00 | 0.00 | 0.00 | 61 | 1008.5 |
| 20260509142018 | 16 | 94 | 1.6 | 6.4 | 0.00 | 0.00 | 0.00 | 61 | 1008.6 |
| 20260509141555 | 16 | 275 | 0.0 | 8.0 | 0.00 | 0.00 | 0.00 | 60 | 1008.7 |
| 20260509141040 | 16 | 71 | 1.6 | 6.4 | 0.00 | 0.00 | 0.00 | 62 | 1008.9 |
| 20260509140518 | 16 | 112 | 0.0 | 6.4 | 0.00 | 0.00 | 0.00 | 63 | 1009.1 |
| 20260509140112 | 16 | 312 | 0.0 | 9.7 | 0.00 | 0.00 | 0.00 | 61 | 1009.1 |
| 20260509140006 | 16 | 245 | 0.0 | 9.7 | 0.00 | 0.00 | 0.00 | 61 | 1009.1 |
| 20260509135543 | 15 | 61 | 1.6 | 9.7 | 0.00 | 0.00 | 0.00 | 61 | 1009.2 |
| 20260509135026 | 15 | 166 | 0.0 | 8.0 | 0.00 | 0.00 | 0.00 | 63 | 1009.2 |
| 20260509134508 | 15 | 277 | 1.6 | 8.0 | 0.00 | 0.00 | 0.00 | 60 | 1009.3 |
| 20260509134050 | 15 | 45 | 0.0 | 4.8 | 0.00 | 0.00 | 0.00 | 61 | 1009.6 |
| 20260509133522 | 15 | 333 | 1.6 | 4.8 | 0.00 | 0.00 | 0.00 | 62 | 1009.6 |
| 20260509133005 | 15 | 355 | 1.6 | 6.4 | 0.00 | 0.00 | 0.00 | 61 | 1009.6 |
| 20260509132545 | 15 | 296 | 1.6 | 6.4 | 0.00 | 0.00 | 0.00 | 60 | 1009.6 |
| 20260509132006 | 15 | 100 | 1.6 | 6.4 | 0.00 | 0.00 | 0.00 | 61 | 1009.7 |
| 20260509131545 | 15 | 5 | 0.0 | 4.8 | 0.00 | 0.00 | 0.00 | 61 | 1009.6 |
| 20260509131029 | 15 | 79 | 1.6 | 6.4 | 0.00 | 0.00 | 0.00 | 60 | 1009.5 |
| 20260509130550 | 15 | 326 | 1.6 | 6.4 | 0.00 | 0.00 | 0.00 | 62 | 1009.4 |
| 20260509130029 | 15 | 312 | 1.6 | 6.4 | 0.00 | 0.00 | 0.00 | 61 | 1009.3 |
| 20260509125507 | 14 | 322 | 1.6 | 6.4 | 0.00 | 0.00 | 0.00 | 61 | 1009.4 |
| 20260509125030 | 14 | 360 | 0.0 | 3.2 | 0.00 | 0.00 | 0.00 | 62 | 1009.3 |
| 20260509124510 | 14 | 42 | 0.0 | 4.8 | 0.00 | 0.00 | 0.00 | 61 | 1009.3 |
| 20260509124049 | 14 | 329 | 1.6 | 4.8 | 0.00 | 0.00 | 0.00 | 62 | 1009.3 |
| 20260509123511 | 14 | 67 | 0.0 | 3.2 | 0.00 | 0.00 | 0.00 | 63 | 1009.3 |
| 20260509123047 | 13 | 298 | 0.0 | 3.2 | 0.00 | 0.00 | 0.00 | 62 | 1009.4 |
| 20260509122529 | 13 | 17 | 0.0 | 3.2 | 0.00 | 0.00 | 0.00 | 62 | 1009.4 |
| 20260509122047 | 13 | 33 | 0.0 | 6.4 | 0.00 | 0.00 | 0.00 | 62 | 1009.4 |
| 20260509121528 | 13 | 351 | 0.0 | 6.4 | 0.00 | 0.00 | 0.00 | 61 | 1009.6 |
| 20260509121007 | 13 | 329 | 0.0 | 3.2 | 0.00 | 0.00 | 0.00 | 61 | 1009.6 |
| 20260509120544 | 13 | 314 | 0.0 | 4.8 | 0.00 | 0.00 | 0.00 | 61 | 1009.6 |
| 20260509120025 | 13 | 77 | 0.0 | 4.8 | 0.00 | 0.00 | 0.00 | 62 | 1009.5 |
| 20260509115502 | 13 | 324 | 0.0 | 3.2 | 0.00 | 0.00 | 0.00 | 62 | 1009.6 |
| 20260509115038 | 13 | 348 | 0.0 | 1.6 | 0.00 | 0.00 | 0.00 | 61 | 1009.6 |
| 20260509114520 | 13 | 5 | 0.0 | 1.6 | 0.00 | 0.00 | 0.00 | 61 | 1009.6 |
| 20260509114057 | 13 | 15 | 0.0 | 0.0 | 0.00 | 0.00 | 0.00 | 62 | 1009.6 |
| 20260509113540 | 13 | 38 | 0.0 | 0.0 | 0.00 | 0.00 | 0.00 | 62 | 1009.5 |
| 20260509113016 | 13 | 24 | 0.0 | 0.0 | 0.00 | 0.00 | 0.00 | 64 | 1009.5 |
| 20260509112552 | 13 | 18 | 0.0 | 0.0 | 0.00 | 0.00 | 0.00 | 63 | 1009.6 |
| 20260509112034 | 13 | 18 | 0.0 | 0.0 | 0.00 | 0.00 | 0.00 | 60 | 1009.6 |
| 20260509111517 | 13 | 92 | 0.0 | 0.0 | 0.00 | 0.00 | 0.00 | 62 | 1009.6 |
| 20260509111052 | 12 | 92 | 0.0 | 0.0 | 0.00 | 0.00 | 0.00 | 61 | 1009.5 |
| 20260509110530 | 12 | 72 | 0.0 | 3.2 | 0.00 | 0.00 | 0.00 | 64 | 1009.5 |
| 20260509110012 | 12 | 55 | 0.0 | 3.2 | 0.00 | 0.00 | 0.00 | 61 | 1009.5 |
| 20260509105550 | 12 | 59 | 0.0 | 3.2 | 0.00 | 0.00 | 0.00 | 61 | 1009.5 |
| 20260509105030 | 12 | 59 | 0.0 | 3.2 | 0.00 | 0.00 | 0.00 | 59 | 1009.6 |
| 20260509104512 | 12 | 44 | 0.0 | 0.0 | 0.00 | 0.00 | 0.00 | 58 | 1009.5 |
| 20260509104050 | 12 | 54 | 0.0 | 0.0 | 0.00 | 0.00 | 0.00 | 59 | 1009.6 |
| 20260509103528 | 12 | 54 | 0.0 | 0.0 | 0.00 | 0.00 | 0.00 | 62 | 1009.6 |
| 20260509103015 | 12 | 31 | 0.0 | 0.0 | 0.00 | 0.00 | 0.00 | 59 | 1009.6 |
| 20260509102546 | 12 | 31 | 0.0 | 0.0 | 0.00 | 0.00 | 0.00 | 59 | 1009.6 |
| 20260509102028 | 12 | 31 | 0.0 | 0.0 | 0.00 | 0.00 | 0.00 | 59 | 1009.6 |
| 20260509101513 | 12 | 31 | 0.0 | 0.0 | 0.00 | 0.00 | 0.00 | 61 | 1009.6 |
| 20260509101052 | 12 | 117 | 0.0 | 0.0 | 0.00 | 0.00 | 0.00 | 63 | 1009.7 |
| 20260509101001 | 12 | 117 | 0.0 | 0.0 | 0.00 | 0.00 | 0.00 | 63 | 1009.7 |
| 20260509100536 | 12 | 118 | 0.0 | 0.0 | 0.00 | 0.00 | 0.00 | 63 | 1009.7 |
| 20260509100022 | 12 | 58 | 0.0 | 0.0 | 0.00 | 0.00 | 0.00 | 61 | 1009.7 |
| 20260509095558 | 12 | 58 | 0.0 | 0.0 | 0.00 | 0.00 | 0.00 | 62 | 1009.8 |
| 20260509095037 | 12 | 23 | 0.0 | 1.6 | 0.00 | 0.00 | 0.00 | 62 | 1009.8 |
| 20260509094515 | 12 | 61 | 0.0 | 1.6 | 0.00 | 0.00 | 0.00 | 62 | 1009.7 |
| 20260509094042 | 12 | 5 | 0.0 | 1.6 | 0.00 | 0.00 | 0.00 | 62 | 1009.7 |
| 20260509093519 | 12 | 5 | 0.0 | 1.6 | 0.00 | 0.00 | 0.00 | 61 | 1009.8 |
| 20260509093046 | 12 | 5 | 0.0 | 1.6 | 0.00 | 0.00 | 0.00 | 60 | 1009.8 |
| 20260509092528 | 12 | 5 | 0.0 | 1.6 | 0.00 | 0.00 | 0.00 | 60 | 1009.9 |
| 20260509092046 | 12 | 5 | 0.0 | 1.6 | 0.00 | 0.00 | 0.00 | 60 | 1010.0 |
| 20260509091521 | 12 | 5 | 0.0 | 1.6 | 0.00 | 0.00 | 0.00 | 59 | 1010.1 |
| 20260509091048 | 12 | 5 | 0.0 | 3.2 | 0.00 | 0.00 | 0.00 | 59 | 1010.0 |
| 20260509090509 | 12 | 5 | 0.0 | 1.6 | 0.00 | 0.00 | 0.00 | 58 | 1010.0 |
| 20260509090027 | 12 | 341 | 0.0 | 1.6 | 0.00 | 0.00 | 0.00 | 59 | 1010.0 |
| 20260509085505 | 12 | 282 | 0.0 | 1.6 | 0.00 | 0.00 | 0.00 | 59 | 1010.0 |
| 20260509085030 | 12 | 287 | 0.0 | 1.6 | 0.00 | 0.00 | 0.00 | 57 | 1010.1 |
| 20260509084549 | 12 | 291 | 0.0 | 1.6 | 0.00 | 0.00 | 0.00 | 59 | 1010.1 |
| 20260509084031 | 13 | 310 | 0.0 | 1.6 | 0.00 | 0.00 | 0.00 | 57 | 1010.2 |
| 20260509083545 | 13 | 311 | 0.0 | 3.2 | 0.00 | 0.00 | 0.00 | 53 | 1010.2 |
| 20260509083006 | 13 | 292 | 0.0 | 3.2 | 0.00 | 0.00 | 0.00 | 54 | 1010.2 |
| 20260509082538 | 13 | 35 | 0.0 | 1.6 | 0.00 | 0.00 | 0.00 | 55 | 1010.3 |
| 20260509082020 | 13 | 35 | 0.0 | 1.6 | 0.00 | 0.00 | 0.00 | 55 | 1010.3 |
| 20260509081559 | 13 | 35 | 0.0 | 1.6 | 0.00 | 0.00 | 0.00 | 56 | 1010.4 |
| 20260509081018 | 13 | 35 | 0.0 | 1.6 | 0.00 | 0.00 | 0.00 | 53 | 1010.3 |
| 20260509080537 | 13 | 92 | 0.0 | 3.2 | 0.00 | 0.00 | 0.00 | 54 | 1010.3 |
| 20260509080021 | 13 | 292 | 0.0 | 3.2 | 0.00 | 0.00 | 0.00 | 52 | 1010.3 |
| 20260509075532 | 13 | 13 | 0.0 | 3.2 | 0.00 | 0.00 | 0.00 | 52 | 1010.4 |
| 20260509075017 | 13 | 13 | 0.0 | 4.8 | 0.00 | 0.00 | 0.00 | 51 | 1010.4 |
| 20260509074550 | 13 | 103 | 1.6 | 4.8 | 0.00 | 0.00 | 0.00 | 51 | 1010.5 |
| 20260509074025 | 13 | 313 | 0.0 | 4.8 | 0.00 | 0.00 | 0.00 | 52 | 1010.5 |
| 20260509073512 | 13 | 345 | 0.0 | 4.8 | 0.00 | 0.00 | 0.00 | 53 | 1010.6 |
| 20260509073137 | 13 | 340 | 0.0 | 4.8 | 0.00 | 0.00 | 0.00 | 53 | 1010.6 |
| 20260509072508 | 13 | 60 | 0.0 | 3.2 | 0.00 | 0.00 | 0.00 | 53 | 1010.7 |
| 20260509072030 | 13 | 355 | 0.0 | 3.2 | 0.00 | 0.00 | 0.00 | 52 | 1010.8 |
| 20260509071558 | 13 | 344 | 0.0 | 3.2 | 0.00 | 0.00 | 0.00 | 52 | 1010.7 |
| 20260509071504 | 13 | 344 | 0.0 | 3.2 | 0.00 | 0.00 | 0.00 | 52 | 1010.7 |
| 20260509071044 | 13 | 10 | 0.0 | 3.2 | 0.00 | 0.00 | 0.00 | 53 | 1010.7 |
| 20260509070511 | 13 | 10 | 0.0 | 3.2 | 0.00 | 0.00 | 0.00 | 53 | 1010.7 |
| 20260509070044 | 13 | 241 | 0.0 | 3.2 | 0.00 | 0.00 | 0.00 | 52 | 1010.7 |
| 20260509065559 | 13 | 340 | 0.0 | 6.4 | 0.00 | 0.00 | 0.00 | 52 | 1010.8 |
| 20260509065505 | 13 | 271 | 0.0 | 6.4 | 0.00 | 0.00 | 0.00 | 53 | 1010.8 |
| 20260509065018 | 13 | 254 | 0.0 | 4.8 | 0.00 | 0.00 | 0.00 | 52 | 1010.8 |
| 20260509064546 | 13 | 99 | 0.0 | 4.8 | 0.00 | 0.00 | 0.00 | 54 | 1010.8 |
| 20260509064014 | 13 | 71 | 0.0 | 4.8 | 0.00 | 0.00 | 0.00 | 53 | 1010.8 |
| 20260509063537 | 12 | 344 | 0.0 | 4.8 | 0.00 | 0.00 | 0.00 | 56 | 1010.9 |
| 20260509063021 | 12 | 36 | 0.0 | 3.2 | 0.00 | 0.00 | 0.00 | 55 | 1010.9 |
| 20260509062540 | 12 | 101 | 0.0 | 3.2 | 0.00 | 0.00 | 0.00 | 55 | 1011.0 |
| 20260509062056 | 12 | 42 | 0.0 | 1.6 | 0.00 | 0.00 | 0.00 | 58 | 1011.1 |
| 20260509061519 | 12 | 42 | 0.0 | 1.6 | 0.00 | 0.00 | 0.00 | 57 | 1011.1 |
| 20260509061052 | 12 | 86 | 0.0 | 4.8 | 0.00 | 0.00 | 0.00 | 56 | 1011.1 |
| 20260509060513 | 12 | 62 | 0.0 | 4.8 | 0.00 | 0.00 | 0.00 | 58 | 1011.2 |
| 20260509060050 | 11 | 95 | 0.0 | 0.0 | 0.00 | 0.00 | 0.00 | 60 | 1011.3 |
| 20260509055512 | 11 | 113 | 0.0 | 0.0 | 0.00 | 0.00 | 0.00 | 62 | 1011.4 |
| 20260509055034 | 11 | 107 | 0.0 | 0.0 | 0.00 | 0.00 | 0.00 | 62 | 1011.4 |
| 20260509054559 | 11 | 103 | 0.0 | 0.0 | 0.00 | 0.00 | 0.00 | 61 | 1011.5 |
| 20260509054022 | 11 | 31 | 0.0 | 0.0 | 0.00 | 0.00 | 0.00 | 63 | 1011.5 |
| 20260509053552 | 11 | 355 | 0.0 | 0.0 | 0.00 | 0.00 | 0.00 | 61 | 1011.6 |
| 20260509053036 | 11 | 139 | 0.0 | 0.0 | 0.00 | 0.00 | 0.00 | 61 | 1011.5 |
| 20260509052554 | 11 | 134 | 0.0 | 0.0 | 0.00 | 0.00 | 0.00 | 61 | 1011.5 |
| 20260509052035 | 11 | 139 | 0.0 | 0.0 | 0.00 | 0.00 | 0.00 | 61 | 1011.5 |
| 20260509051558 | 12 | 136 | 0.0 | 1.6 | 0.00 | 0.00 | 0.00 | 60 | 1011.6 |
| 20260509051033 | 12 | 119 | 0.0 | 1.6 | 0.00 | 0.00 | 0.00 | 60 | 1011.7 |
| 20260509050553 | 12 | 119 | 0.0 | 1.6 | 0.00 | 0.00 | 0.00 | 59 | 1011.7 |
| 20260509050025 | 12 | 22 | 0.0 | 0.0 | 0.00 | 0.00 | 0.00 | 60 | 1011.7 |
| 20260509045551 | 12 | 79 | 0.0 | 0.0 | 0.00 | 0.00 | 0.00 | 58 | 1011.8 |
| 20260509045015 | 12 | 99 | 0.0 | 0.0 | 0.00 | 0.00 | 0.00 | 58 | 1011.6 |
| 20260509044550 | 12 | 98 | 0.0 | 1.6 | 0.00 | 0.00 | 0.00 | 59 | 1011.5 |
| 20260509044010 | 12 | 98 | 0.0 | 1.6 | 0.00 | 0.00 | 0.00 | 59 | 1011.5 |
| 20260509043533 | 12 | 176 | 0.0 | 3.2 | 0.00 | 0.00 | 0.00 | 59 | 1011.4 |
| 20260509043022 | 12 | 178 | 0.0 | 4.8 | 0.00 | 0.00 | 0.00 | 56 | 1011.5 |
| 20260509042531 | 12 | 96 | 0.0 | 0.0 | 0.00 | 0.00 | 0.00 | 58 | 1011.4 |
| 20260509042012 | 12 | 78 | 0.0 | 0.0 | 0.00 | 0.00 | 0.00 | 58 | 1011.4 |
| 20260509041531 | 12 | 57 | 0.0 | 0.0 | 0.00 | 0.00 | 0.00 | 57 | 1011.4 |
| 20260509041047 | 12 | 57 | 0.0 | 0.0 | 0.00 | 0.00 | 0.00 | 55 | 1011.3 |
| 20260509040525 | 12 | 150 | 0.0 | 1.6 | 0.00 | 0.00 | 0.00 | 55 | 1011.4 |
| 20260509035521 | 13 | 64 | 0.0 | 0.0 | 0.00 | 0.00 | 0.00 | 56 | 1011.4 |
| 20260509035048 | 13 | 58 | 0.0 | 0.0 | 0.00 | 0.00 | 0.00 | 56 | 1011.4 |
| 20260509034524 | 13 | 41 | 0.0 | 0.0 | 0.00 | 0.00 | 0.00 | 55 | 1011.4 |
| 20260509034055 | 13 | 42 | 0.0 | 0.0 | 0.00 | 0.00 | 0.00 | 55 | 1011.4 |
| 20260509033535 | 13 | 94 | 0.0 | 1.6 | 0.00 | 0.00 | 0.00 | 55 | 1011.4 |
| 20260509033054 | 12 | 115 | 0.0 | 3.2 | 0.00 | 0.00 | 0.00 | 56 | 1011.4 |
| 20260509032536 | 12 | 26 | 0.0 | 3.2 | 0.00 | 0.00 | 0.00 | 55 | 1011.4 |
| 20260509032052 | 12 | 30 | 0.0 | 1.6 | 0.00 | 0.00 | 0.00 | 56 | 1011.4 |
| 20260509031520 | 12 | 355 | 0.0 | 1.6 | 0.00 | 0.00 | 0.00 | 58 | 1011.3 |
| 20260509031053 | 12 | 355 | 0.0 | 3.2 | 0.00 | 0.00 | 0.00 | 58 | 1011.4 |
| 20260509030518 | 12 | 325 | 0.0 | 3.2 | 0.00 | 0.00 | 0.00 | 55 | 1011.5 |
| 20260509030050 | 13 | 157 | 0.0 | 0.0 | 0.00 | 0.00 | 0.00 | 57 | 1011.4 |
| 20260509025513 | 13 | 157 | 0.0 | 0.0 | 0.00 | 0.00 | 0.00 | 57 | 1011.5 |
| 20260509025049 | 13 | 157 | 0.0 | 0.0 | 0.00 | 0.00 | 0.00 | 56 | 1011.6 |
| 20260509024507 | 13 | 76 | 0.0 | 0.0 | 0.00 | 0.00 | 0.00 | 57 | 1011.6 |
| 20260509024027 | 13 | 69 | 0.0 | 0.0 | 0.00 | 0.00 | 0.00 | 56 | 1011.7 |
| 20260509023503 | 13 | 65 | 0.0 | 0.0 | 0.00 | 0.00 | 0.00 | 54 | 1011.7 |
| 20260509023027 | 14 | 91 | 0.0 | 1.6 | 0.00 | 0.00 | 0.00 | 54 | 1011.7 |
| 20260509022559 | 14 | 22 | 0.0 | 1.6 | 0.00 | 0.00 | 0.00 | 54 | 1011.7 |
| 20260509022501 | 14 | 22 | 0.0 | 3.2 | 0.00 | 0.00 | 0.00 | 54 | 1011.8 |
| 20260509022024 | 14 | 322 | 0.0 | 3.2 | 0.00 | 0.00 | 0.00 | 53 | 1011.8 |
| 20260509021549 | 14 | 322 | 0.0 | 4.8 | 0.00 | 0.00 | 0.00 | 50 | 1011.7 |
| 20260509021033 | 15 | 32 | 0.0 | 4.8 | 0.00 | 0.00 | 0.00 | 51 | 1011.6 |